Aeroporto :
LOGIN :

Iscrizione | Disclaimer

   EN    FR    IT 

 










Sommario :    VFR   VFR Marginale   IFR   IFR Intensivo   IFR Molto Intensivo
Visibilità : 
Base nubi : 
>= 8 km
>= 3000ft
5 / 8 km
1000 / 3000 ft
1500m / 5 km
500 / 1000 ft
800 / 1500m
200 / 500 ft
< 800m
< 200 ft
Simboli :   Temporali  Nebbia  Neve Forte  Precipitazioni Forti  Vento > 20 kt
SIGMETs :   Varie  Temporali  Ghiacco  Turbolenza  Onda orograficha  Ceneri Vulcaniche







- Altitudine del aeroporto : 94 ft
- Codice IATA : QLT


LIRL - Latina Casale (military)

ULTIMO METAR :
  • 151255Z 12006KT 9999 FEW025 SCT070 24/12 Q1014 RMK BKN MON LIB NC VIS MIN 9999 WIND THR12 14005KT WIND THR30 12004KT BLU

METARs OBSOLETI :
  • 151155Z 21006KT 9999 FEW030 SCT060 24/12 Q1015 RMK BKN MON LIB NC VIS MIN 9999 WIND THR12 12006KT WIND THR30 12005KT BLU
  • 151055Z 12004KT 9999 FEW030 SCT060 24/12 Q1015 RMK SCT MON LIB NC VIS MIN 9999 WIND THR12 11003KT WIND THR30 09006KT BLU

TAF TAF LIRL
Valido dal 15 a 12 ore il 15 a 21 ore UTC


151100Z 1512/1521 VRB03KT 9999 SCT050
TEMPO 1512/1515 11013KT
Nessun NOTAM noto per questo aeroporto.



MetMap, La meteo Aeronautica in un colpo d'occhio ! - Copyright ORBIFLY Dicembre 2007 - Disclaimer

ORBIFLY MET'MAP TEAM :

Programmazione e sviluppo : Alexandra Zaïnal
Concezione e sviluppo : Baudouin d'Aumeries
Co-Programmazione e sviluppo : Marc-Olivier Méhu
Supporto tecnico e logistico : Manuel Goepfert
Aiuto per la traduzione : Arnaldo La Scala

Contatto : metmap@orbifly.com




FONTI E CREDITI :

   NOAA